| time (UTC) | temp C | wind direction | speed KPH | gust KPH | rain 1hr cm | rain 24hr cm | rain mn cm | humidity % | barometer mb |
| 20260506192856 | 19 | 212 | 3.2 | 6.4 | 0.00 | 0.00 | 0.00 | 79 | 1007.0 |
| 20260506191856 | 19 | 214 | 3.2 | 9.7 | 0.00 | 0.00 | 0.00 | 79 | 1007.1 |
| 20260506190854 | 19 | 206 | 4.8 | 11.3 | 0.00 | 0.00 | 0.00 | 80 | 1007.1 |
| 20260506185912 | 18 | 213 | 3.2 | 6.4 | 0.00 | 0.00 | 0.00 | 80 | 1007.2 |
| 20260506184850 | 18 | 214 | 3.2 | 6.4 | 0.00 | 0.00 | 0.00 | 79 | 1007.3 |
| 20260506183846 | 18 | 217 | 3.2 | 6.4 | 0.00 | 0.00 | 0.00 | 79 | 1007.4 |
| 20260506182844 | 18 | 210 | 3.2 | 9.7 | 0.00 | 0.00 | 0.00 | 79 | 1007.5 |
| 20260506181842 | 18 | 194 | 3.2 | 6.4 | 0.00 | 0.00 | 0.00 | 78 | 1007.5 |
| 20260506180840 | 19 | 188 | 4.8 | 9.7 | 0.00 | 0.00 | 0.00 | 78 | 1007.6 |
| 20260506175918 | 19 | 189 | 3.2 | 14.5 | 0.00 | 0.00 | 0.00 | 77 | 1007.6 |
| 20260506174836 | 19 | 187 | 3.2 | 9.7 | 0.00 | 0.00 | 0.00 | 76 | 1007.8 |
| 20260506173834 | 20 | 192 | 3.2 | 9.7 | 0.00 | 0.00 | 0.00 | 75 | 1007.8 |
| 20260506172832 | 20 | 190 | 1.6 | 6.4 | 0.00 | 0.00 | 0.00 | 75 | 1007.9 |
| 20260506171830 | 20 | 207 | 4.8 | 9.7 | 0.00 | 0.00 | 0.00 | 75 | 1007.9 |
| 20260506170828 | 20 | 160 | 1.6 | 6.4 | 0.00 | 0.00 | 0.00 | 76 | 1008.0 |
| 20260506165826 | 20 | 175 | 3.2 | 6.4 | 0.00 | 0.00 | 0.00 | 76 | 1008.0 |
| 20260506164824 | 20 | 212 | 3.2 | 6.4 | 0.00 | 0.00 | 0.00 | 78 | 1008.2 |
| 20260506163823 | 20 | 200 | 3.2 | 6.4 | 0.00 | 0.00 | 0.00 | 74 | 1008.5 |
| 20260506162820 | 21 | 192 | 4.8 | 9.7 | 0.00 | 0.00 | 0.00 | 71 | 1008.7 |
| 20260506161818 | 21 | 210 | 3.2 | 9.7 | 0.00 | 0.00 | 0.00 | 70 | 1009.0 |
| 20260506160816 | 20 | 204 | 4.8 | 9.7 | 0.00 | 0.00 | 0.00 | 70 | 1009.1 |
| 20260506155836 | 20 | 180 | 4.8 | 9.7 | 0.00 | 0.00 | 0.00 | 69 | 1009.1 |
| 20260506154813 | 20 | 201 | 4.8 | 9.7 | 0.00 | 0.00 | 0.00 | 69 | 1009.0 |
| 20260506153810 | 20 | 181 | 3.2 | 9.7 | 0.00 | 0.00 | 0.00 | 69 | 1009.0 |
| 20260506152809 | 20 | 204 | 3.2 | 6.4 | 0.00 | 0.00 | 0.00 | 68 | 1009.2 |
| 20260506151808 | 20 | 200 | 3.2 | 9.7 | 0.00 | 0.00 | 0.00 | 68 | 1009.2 |
| 20260506150804 | 21 | 194 | 3.2 | 6.4 | 0.00 | 0.00 | 0.00 | 68 | 1009.1 |
| 20260506145824 | 20 | 214 | 3.2 | 11.3 | 0.00 | 0.00 | 0.00 | 68 | 1009.1 |
| 20260506144821 | 20 | 212 | 3.2 | 6.4 | 0.00 | 0.00 | 0.00 | 68 | 1009.2 |
| 20260506143758 | 20 | 206 | 4.8 | 9.7 | 0.00 | 0.00 | 0.00 | 67 | 1009.2 |
| 20260506142757 | 20 | 187 | 3.2 | 9.7 | 0.00 | 0.00 | 0.00 | 67 | 1009.3 |
| 20260506141755 | 21 | 195 | 3.2 | 9.7 | 0.00 | 0.00 | 0.00 | 67 | 1009.3 |
| 20260506140752 | 20 | 203 | 3.2 | 9.7 | 0.00 | 0.00 | 0.00 | 67 | 1009.1 |
| 20260506135751 | 20 | 192 | 3.2 | 9.7 | 0.00 | 0.00 | 0.00 | 68 | 1008.9 |
| 20260506134748 | 20 | 208 | 3.2 | 6.4 | 0.00 | 0.00 | 0.00 | 68 | 1009.0 |
| 20260506133747 | 20 | 186 | 3.2 | 9.7 | 0.00 | 0.00 | 0.00 | 67 | 1009.0 |
| 20260506132745 | 20 | 196 | 3.2 | 6.4 | 0.00 | 0.00 | 0.00 | 68 | 1009.0 |
| 20260506131802 | 20 | 186 | 3.2 | 6.4 | 0.00 | 0.00 | 0.00 | 69 | 1009.2 |
| 20260506130802 | 20 | 193 | 3.2 | 9.7 | 0.00 | 0.00 | 0.00 | 70 | 1009.4 |
| 20260506125738 | 20 | 184 | 1.6 | 6.4 | 0.00 | 0.00 | 0.00 | 72 | 1009.5 |
| 20260506124758 | 19 | 183 | 3.2 | 6.4 | 0.00 | 0.00 | 0.00 | 73 | 1009.3 |
| 20260506123733 | 18 | 181 | 3.2 | 9.7 | 0.00 | 0.00 | 0.00 | 74 | 1009.4 |
| 20260506122732 | 18 | 198 | 3.2 | 6.4 | 0.00 | 0.00 | 0.00 | 75 | 1009.4 |
| 20260506121750 | 18 | 204 | 1.6 | 6.4 | 0.00 | 0.00 | 0.00 | 75 | 1009.5 |
| 20260506120749 | 18 | 195 | 3.2 | 6.4 | 0.00 | 0.00 | 0.00 | 75 | 1009.5 |
| 20260506115747 | 18 | 215 | 4.8 | 9.7 | 0.00 | 0.00 | 0.00 | 76 | 1009.4 |
| 20260506114724 | 17 | 175 | 3.2 | 6.4 | 0.00 | 0.00 | 0.00 | 78 | 1009.4 |
| 20260506113721 | 17 | 175 | 3.2 | 6.4 | 0.00 | 0.00 | 0.00 | 78 | 1009.4 |
| 20260506112719 | 17 | 189 | 1.6 | 9.7 | 0.00 | 0.00 | 0.00 | 79 | 1009.5 |
| 20260506111718 | 17 | 172 | 1.6 | 6.4 | 0.00 | 0.00 | 0.00 | 79 | 1009.5 |
| 20260506110737 | 16 | 158 | 1.6 | 6.4 | 0.00 | 0.00 | 0.00 | 79 | 1009.5 |
| 20260506105735 | 16 | 162 | 3.2 | 6.4 | 0.00 | 0.00 | 0.00 | 80 | 1009.4 |
| 20260506104734 | 16 | 170 | 1.6 | 4.8 | 0.00 | 0.00 | 0.00 | 80 | 1009.5 |
| 20260506103711 | 16 | 170 | 3.2 | 9.7 | 0.00 | 0.00 | 0.00 | 80 | 1009.5 |
| 20260506102728 | 16 | 175 | 1.6 | 4.8 | 0.00 | 0.00 | 0.00 | 80 | 1009.5 |
| 20260506101707 | 16 | 172 | 1.6 | 6.4 | 0.00 | 0.00 | 0.00 | 80 | 1009.3 |
| 20260506100724 | 16 | 174 | 1.6 | 6.4 | 0.00 | 0.00 | 0.00 | 80 | 1009.3 |
| 20260506095724 | 16 | 156 | 1.6 | 6.4 | 0.00 | 0.00 | 0.00 | 80 | 1009.2 |
| 20260506094700 | 16 | 169 | 1.6 | 6.4 | 0.00 | 0.00 | 0.00 | 81 | 1009.2 |
| 20260506093658 | 16 | 164 | 1.6 | 6.4 | 0.00 | 0.00 | 0.00 | 81 | 1009.1 |
| 20260506092656 | 16 | 176 | 1.6 | 6.4 | 0.00 | 0.00 | 0.00 | 81 | 1009.3 |
| 20260506091654 | 16 | 167 | 1.6 | 6.4 | 0.00 | 0.00 | 0.00 | 81 | 1009.3 |
| 20260506090652 | 16 | 180 | 1.6 | 6.4 | 0.00 | 0.00 | 0.00 | 81 | 1009.4 |
| 20260506085650 | 17 | 167 | 1.6 | 6.4 | 0.00 | 0.00 | 0.00 | 81 | 1009.6 |
| 20260506084648 | 17 | 147 | 1.6 | 9.7 | 0.00 | 0.00 | 0.00 | 81 | 1009.6 |
| 20260506083646 | 17 | 175 | 1.6 | 6.4 | 0.00 | 0.00 | 0.00 | 81 | 1009.7 |
| 20260506082643 | 17 | 159 | 1.6 | 6.4 | 0.00 | 0.00 | 0.00 | 81 | 1009.7 |
| 20260506081642 | 17 | 164 | 1.6 | 6.4 | 0.00 | 0.00 | 0.00 | 80 | 1009.6 |
| 20260506080639 | 17 | 159 | 1.6 | 6.4 | 0.00 | 0.00 | 0.00 | 80 | 1009.6 |
| 20260506072632 | 17 | 150 | 3.2 | 6.4 | 0.00 | 0.00 | 0.00 | 80 | 1009.7 |
| 20260506071631 | 17 | 158 | 1.6 | 4.8 | 0.00 | 0.00 | 0.00 | 80 | 1009.7 |
| 20260506070628 | 17 | 159 | 3.2 | 6.4 | 0.00 | 0.00 | 0.00 | 79 | 1009.8 |
| 20260506061658 | 18 | 159 | 1.6 | 6.4 | 0.00 | 0.00 | 0.00 | 78 | 1009.8 |
| 20260506060618 | 18 | 165 | 3.2 | 9.7 | 0.00 | 0.00 | 0.00 | 78 | 1009.9 |
| 20260506050603 | 18 | 161 | 1.6 | 6.4 | 0.00 | 0.00 | 0.00 | 76 | 1010.3 |
| 20260506044559 | 18 | 194 | 3.2 | 6.4 | 0.00 | 0.00 | 0.00 | 76 | 1010.4 |
| 20260506043557 | 18 | 173 | 1.6 | 9.7 | 0.00 | 0.00 | 0.00 | 76 | 1010.4 |
| 20260506042615 | 18 | 193 | 3.2 | 6.4 | 0.00 | 0.00 | 0.00 | 75 | 1010.4 |
| 20260506041555 | 18 | 168 | 1.6 | 6.4 | 0.00 | 0.00 | 0.00 | 75 | 1010.4 |
| 20260506040553 | 18 | 172 | 1.6 | 14.5 | 0.00 | 0.00 | 0.00 | 75 | 1010.3 |
| 20260506035550 | 18 | 188 | 1.6 | 6.4 | 0.00 | 0.00 | 0.00 | 74 | 1010.4 |
| 20260506034548 | 18 | 185 | 1.6 | 4.8 | 0.00 | 0.00 | 0.00 | 74 | 1010.3 |
| 20260506033547 | 18 | 174 | 3.2 | 11.3 | 0.00 | 0.00 | 0.00 | 73 | 1010.4 |
| 20260506032544 | 18 | 169 | 3.2 | 6.4 | 0.00 | 0.00 | 0.00 | 73 | 1010.4 |
| 20260506031603 | 18 | 168 | 3.2 | 6.4 | 0.00 | 0.00 | 0.00 | 73 | 1010.4 |
| 20260506030540 | 19 | 181 | 3.2 | 9.7 | 0.00 | 0.00 | 0.00 | 72 | 1010.5 |
| 20260506025538 | 19 | 174 | 1.6 | 9.7 | 0.00 | 0.00 | 0.00 | 72 | 1010.4 |
| 20260506024536 | 19 | 186 | 3.2 | 6.4 | 0.00 | 0.00 | 0.00 | 71 | 1010.5 |
| 20260506023535 | 19 | 169 | 3.2 | 9.7 | 0.00 | 0.00 | 0.00 | 70 | 1010.5 |
| 20260506022555 | 20 | 178 | 3.2 | 6.4 | 0.00 | 0.00 | 0.00 | 69 | 1010.5 |
| 20260506021530 | 20 | 159 | 3.2 | 6.4 | 0.00 | 0.00 | 0.00 | 68 | 1010.5 |
| 20260506020527 | 20 | 184 | 3.2 | 9.7 | 0.00 | 0.00 | 0.00 | 67 | 1010.5 |
| 20260506015528 | 20 | 190 | 3.2 | 9.7 | 0.00 | 0.00 | 0.00 | 66 | 1010.4 |
| 20260506014544 | 20 | 165 | 1.6 | 6.4 | 0.00 | 0.00 | 0.00 | 65 | 1010.4 |
| 20260506013522 | 20 | 173 | 3.2 | 9.7 | 0.00 | 0.00 | 0.00 | 64 | 1010.3 |
| 20260506012540 | 20 | 176 | 3.2 | 6.4 | 0.00 | 0.00 | 0.00 | 63 | 1010.2 |
| 20260506011518 | 20 | 165 | 3.2 | 9.7 | 0.00 | 0.00 | 0.00 | 63 | 1010.2 |
| 20260506010517 | 21 | 153 | 1.6 | 6.4 | 0.00 | 0.00 | 0.00 | 63 | 1010.1 |
| 20260506005513 | 21 | 166 | 3.2 | 9.7 | 0.00 | 0.00 | 0.00 | 62 | 1010.1 |
| 20260506004512 | 21 | 164 | 1.6 | 6.4 | 0.00 | 0.00 | 0.00 | 62 | 1009.8 |
| 20260506003533 | 21 | 147 | 1.6 | 4.8 | 0.00 | 0.00 | 0.00 | 62 | 1009.7 |
| 20260506002528 | 21 | 170 | 1.6 | 6.4 | 0.00 | 0.00 | 0.00 | 61 | 1009.7 |
| 20260506001506 | 21 | 148 | 1.6 | 6.4 | 0.00 | 0.00 | 0.00 | 61 | 1009.8 |
| 20260506000504 | 22 | 149 | 3.2 | 11.3 | 0.00 | 0.00 | 0.00 | 60 | 1009.7 |
| 20260505235000 | 22 | 147 | 3.2 | 6.4 | 0.00 | 0.00 | 0.00 | 58 | 1009.6 |
| 20260505234000 | 23 | 168 | 3.2 | 9.7 | 0.00 | 0.00 | 0.00 | 56 | 1009.4 |
| 20260505232457 | 23 | 169 | 1.6 | 6.4 | 0.00 | 0.00 | 0.00 | 54 | 1009.3 |
| 20260505231453 | 24 | 175 | 1.6 | 6.4 | 0.00 | 0.00 | 0.00 | 53 | 1009.3 |
| 20260505230453 | 25 | 167 | 3.2 | 6.4 | 0.00 | 0.00 | 0.00 | 50 | 1009.2 |
| 20260505225449 | 25 | 181 | 1.6 | 6.4 | 0.00 | 0.00 | 0.00 | 48 | 1009.2 |
| 20260505224448 | 26 | 162 | 3.2 | 9.7 | 0.00 | 0.00 | 0.00 | 46 | 1009.1 |
| 20260505223445 | 26 | 193 | 3.2 | 9.7 | 0.00 | 0.00 | 0.00 | 44 | 1009.0 |
| 20260505222506 | 27 | 207 | 4.8 | 11.3 | 0.00 | 0.00 | 0.00 | 43 | 1008.8 |
| 20260505221442 | 27 | 195 | 4.8 | 9.7 | 0.00 | 0.00 | 0.00 | 43 | 1009.0 |
| 20260505220502 | 28 | 201 | 4.8 | 11.3 | 0.00 | 0.00 | 0.00 | 43 | 1008.8 |
| 20260505215438 | 28 | 203 | 3.2 | 9.7 | 0.00 | 0.00 | 0.00 | 42 | 1008.7 |
| 20260505214437 | 28 | 216 | 4.8 | 16.1 | 0.00 | 0.00 | 0.00 | 41 | 1008.6 |
| 20260505213436 | 28 | 189 | 4.8 | 11.3 | 0.00 | 0.00 | 0.00 | 41 | 1008.6 |
| 20260505212432 | 28 | 180 | 3.2 | 6.4 | 0.00 | 0.00 | 0.00 | 41 | 1008.4 |
| 20260505211431 | 28 | 186 | 3.2 | 11.3 | 0.00 | 0.00 | 0.00 | 41 | 1008.4 |
| 20260505210428 | 29 | 215 | 6.4 | 14.5 | 0.00 | 0.00 | 0.00 | 41 | 1008.2 |
| 20260505205446 | 29 | 227 | 6.4 | 14.5 | 0.00 | 0.00 | 0.00 | 40 | 1008.3 |
| 20260505204445 | 29 | 201 | 6.4 | 11.3 | 0.00 | 0.00 | 0.00 | 40 | 1008.2 |
| 20260505203422 | 29 | 201 | 3.2 | 9.7 | 0.00 | 0.00 | 0.00 | 41 | 1008.2 |
| 20260505202421 | 30 | 211 | 4.8 | 9.7 | 0.00 | 0.00 | 0.00 | 41 | 1008.3 |
| 20260505201420 | 30 | 207 | 4.8 | 9.7 | 0.00 | 0.00 | 0.00 | 42 | 1008.3 |
| 20260505200436 | 29 | 218 | 4.8 | 14.5 | 0.00 | 0.00 | 0.00 | 41 | 1008.3 |
| 20260505195414 | 29 | 220 | 6.4 | 14.5 | 0.00 | 0.00 | 0.00 | 41 | 1008.5 |
| 20260505194413 | 30 | 213 | 4.8 | 9.7 | 0.00 | 0.00 | 0.00 | 41 | 1008.6 |
| 20260505193411 | 30 | 213 | 4.8 | 9.7 | 0.00 | 0.00 | 0.00 | 41 | 1008.6 |